Location: Del Amo
(33.8464°N, 118.2104°W)
Time: 17:23:44
(UTC+00:00)

CUTE 1.7 + AOD 2 - Visible Passes

Search period start: 07 October 2024 00:00
Search period end: 17 October 2024 00:00
Orbit: 564 x 575 km, 97.8° (Epoch: 06 October)

Date Brightness Start Highest point End Pass type
(mag) Time Alt. Az. Time Alt. Az. Time Alt. Az.
07 Oct ? 11:31:48 10° N 11:32:08 12° N 11:32:08 12° N visible
08 Oct ? 11:33:30 10° N 11:33:43 11° N 11:33:43 11° N visible
09 Oct ? 11:35:10 10° N 11:35:16 11° N 11:35:16 11° N visible
